| time (UTC) | temp F | wind direction | speed MPH | gust MPH | rain 1hr in | rain 24hr in | rain mn in | humidity % | barometer mb |
| 20260508044036 | 59 | 7 | 1.0 | 2.0 | 0.00 | 0.00 | 0.00 | 92 | 1017.8 |
| 20260508043533 | 59 | 297 | 0.0 | 1.0 | 0.00 | 0.00 | 0.00 | 92 | 1017.8 |
| 20260508043031 | 59 | 297 | 0.0 | 0.0 | 0.00 | 0.00 | 0.00 | 92 | 1018.0 |
| 20260508042527 | 59 | 297 | 0.0 | 0.0 | 0.00 | 0.00 | 0.00 | 91 | 1017.7 |
| 20260508042025 | 60 | 297 | 0.0 | 0.0 | 0.00 | 0.00 | 0.00 | 91 | 1017.9 |
| 20260508041521 | 60 | 297 | 0.0 | 0.0 | 0.00 | 0.00 | 0.00 | 91 | 1017.9 |
| 20260508041018 | 60 | 297 | 0.0 | 0.0 | 0.00 | 0.00 | 0.00 | 91 | 1017.8 |
| 20260508040515 | 60 | 297 | 0.0 | 0.0 | 0.00 | 0.00 | 0.00 | 90 | 1018.0 |
| 20260508040012 | 60 | 297 | 0.0 | 0.0 | 0.00 | 0.00 | 0.00 | 90 | 1018.0 |
| 20260508035509 | 60 | 297 | 0.0 | 0.0 | 0.00 | 0.00 | 0.00 | 90 | 1017.9 |
| 20260508035006 | 60 | 297 | 0.0 | 0.0 | 0.00 | 0.00 | 0.00 | 90 | 1017.8 |
| 20260508034503 | 60 | 305 | 0.0 | 1.0 | 0.00 | 0.00 | 0.00 | 90 | 1017.8 |
| 20260508034000 | 60 | 294 | 1.0 | 1.0 | 0.00 | 0.00 | 0.00 | 91 | 1017.5 |
| 20260508033458 | 60 | 294 | 0.0 | 0.0 | 0.00 | 0.00 | 0.00 | 90 | 1017.6 |
| 20260508032955 | 60 | 294 | 0.0 | 0.0 | 0.00 | 0.00 | 0.00 | 90 | 1017.4 |
| 20260508032452 | 60 | 294 | 0.0 | 0.0 | 0.00 | 0.00 | 0.00 | 89 | 1017.3 |
| 20260508031949 | 61 | 294 | 0.0 | 0.0 | 0.00 | 0.00 | 0.00 | 89 | 1017.5 |
| 20260508031447 | 61 | 307 | 0.0 | 0.0 | 0.00 | 0.00 | 0.00 | 88 | 1017.4 |
| 20260508030942 | 62 | 307 | 0.0 | 0.0 | 0.00 | 0.00 | 0.00 | 88 | 1017.4 |
| 20260508030439 | 62 | 310 | 0.0 | 1.0 | 0.00 | 0.00 | 0.00 | 88 | 1017.3 |
| 20260508025937 | 62 | 351 | 2.0 | 3.0 | 0.00 | 0.00 | 0.00 | 88 | 1017.2 |
| 20260508025433 | 61 | 235 | 0.0 | 0.0 | 0.00 | 0.00 | 0.00 | 87 | 1016.9 |
| 20260508024930 | 62 | 207 | 0.0 | 0.0 | 0.00 | 0.00 | 0.00 | 87 | 1016.9 |
| 20260508024426 | 61 | 297 | 0.0 | 1.0 | 0.00 | 0.00 | 0.00 | 87 | 1016.9 |
| 20260508023923 | 61 | 281 | 1.0 | 1.0 | 0.00 | 0.00 | 0.00 | 87 | 1017.0 |
| 20260508023420 | 61 | 237 | 0.0 | 0.0 | 0.00 | 0.00 | 0.00 | 87 | 1017.1 |
| 20260508022917 | 61 | 240 | 0.0 | 0.0 | 0.00 | 0.00 | 0.00 | 87 | 1017.1 |
| 20260508022413 | 62 | 239 | 0.0 | 0.0 | 0.00 | 0.00 | 0.00 | 86 | 1017.0 |
| 20260508021910 | 62 | 256 | 0.0 | 0.0 | 0.00 | 0.00 | 0.00 | 86 | 1017.1 |
| 20260508021406 | 62 | 258 | 0.0 | 0.0 | 0.00 | 0.00 | 0.00 | 86 | 1017.1 |
| 20260508020902 | 62 | 297 | 1.0 | 1.0 | 0.00 | 0.00 | 0.00 | 86 | 1016.9 |
| 20260508020400 | 62 | 273 | 1.0 | 1.0 | 0.00 | 0.00 | 0.00 | 86 | 1017.1 |
| 20260508015857 | 62 | 272 | 0.0 | 0.0 | 0.00 | 0.00 | 0.00 | 86 | 1016.9 |
| 20260508015354 | 62 | 272 | 0.0 | 0.0 | 0.00 | 0.00 | 0.00 | 86 | 1017.0 |
| 20260508014850 | 62 | 273 | 0.0 | 0.0 | 0.00 | 0.00 | 0.00 | 86 | 1016.9 |
| 20260508014348 | 63 | 273 | 0.0 | 0.0 | 0.00 | 0.00 | 0.00 | 86 | 1016.9 |
| 20260508013843 | 63 | 289 | 0.0 | 1.0 | 0.00 | 0.00 | 0.00 | 86 | 1016.8 |
| 20260508013340 | 63 | 270 | 0.0 | 1.0 | 0.00 | 0.00 | 0.00 | 85 | 1017.2 |
| 20260508012837 | 63 | 255 | 0.0 | 1.0 | 0.00 | 0.00 | 0.00 | 86 | 1016.9 |
| 20260508012334 | 63 | 213 | 0.0 | 1.0 | 0.00 | 0.00 | 0.00 | 86 | 1016.9 |
| 20260508011832 | 63 | 212 | 0.0 | 0.0 | 0.00 | 0.00 | 0.00 | 85 | 1017.2 |
| 20260508011330 | 63 | 230 | 0.0 | 0.0 | 0.00 | 0.00 | 0.00 | 84 | 1017.2 |
| 20260508010826 | 63 | 228 | 1.0 | 1.0 | 0.00 | 0.00 | 0.00 | 84 | 1017.6 |
| 20260508010324 | 64 | 215 | 0.0 | 1.0 | 0.00 | 0.00 | 0.00 | 83 | 1017.4 |
| 20260508005821 | 64 | 250 | 0.0 | 0.0 | 0.00 | 0.00 | 0.00 | 82 | 1017.7 |
| 20260508005318 | 64 | 303 | 0.0 | 1.0 | 0.00 | 0.00 | 0.00 | 81 | 1017.5 |
| 20260508004815 | 64 | 273 | 1.0 | 1.0 | 0.00 | 0.00 | 0.00 | 83 | 1017.7 |
| 20260508004310 | 64 | 240 | 0.0 | 1.0 | 0.00 | 0.00 | 0.00 | 83 | 1018.0 |
| 20260508003806 | 64 | 269 | 1.0 | 2.0 | 0.00 | 0.00 | 0.00 | 82 | 1017.2 |
| 20260508003305 | 64 | 106 | 0.0 | 1.0 | 0.00 | 0.00 | 0.00 | 81 | 1016.7 |
| 20260508002801 | 64 | 84 | 2.0 | 2.0 | 0.00 | 0.00 | 0.00 | 79 | 1017.0 |
| 20260508002258 | 65 | 302 | 1.0 | 2.0 | 0.00 | 0.00 | 0.00 | 78 | 1017.5 |
| 20260508001754 | 65 | 323 | 2.0 | 2.0 | 0.00 | 0.00 | 0.00 | 78 | 1017.3 |
| 20260508001249 | 65 | 300 | 1.0 | 3.0 | 0.00 | 0.00 | 0.00 | 76 | 1017.3 |
| 20260508000746 | 65 | 172 | 0.0 | 2.0 | 0.00 | 0.00 | 0.00 | 76 | 1016.8 |
| 20260508000243 | 66 | 209 | 0.0 | 0.0 | 0.00 | 0.00 | 0.00 | 74 | 1017.3 |
| 20260507235739 | 66 | 253 | 0.0 | 1.0 | 0.00 | 0.00 | 0.00 | 74 | 1017.2 |
| 20260507235237 | 66 | 231 | 1.0 | 2.0 | 0.00 | 0.00 | 0.00 | 73 | 1016.9 |
| 20260507234734 | 66 | 207 | 0.0 | 3.0 | 0.00 | 0.00 | 0.00 | 73 | 1017.1 |
| 20260507234230 | 66 | 129 | 0.0 | 1.0 | 0.00 | 0.00 | 0.00 | 72 | 1017.2 |
| 20260507233727 | 66 | 208 | 1.0 | 2.0 | 0.00 | 0.00 | 0.00 | 71 | 1017.4 |
| 20260507233225 | 66 | 205 | 0.0 | 2.0 | 0.00 | 0.00 | 0.00 | 70 | 1017.5 |
| 20260507232722 | 67 | 208 | 0.0 | 2.0 | 0.00 | 0.00 | 0.00 | 70 | 1017.5 |
| 20260507232219 | 67 | 105 | 3.0 | 3.0 | 0.00 | 0.00 | 0.00 | 69 | 1017.5 |
| 20260507231715 | 67 | 129 | 2.0 | 3.0 | 0.00 | 0.00 | 0.00 | 69 | 1017.6 |
| 20260507231213 | 67 | 196 | 0.0 | 1.0 | 0.00 | 0.00 | 0.00 | 68 | 1017.7 |
| 20260507230709 | 67 | 257 | 0.0 | 1.0 | 0.00 | 0.00 | 0.00 | 68 | 1018.1 |
| 20260507230207 | 67 | 324 | 1.0 | 2.0 | 0.00 | 0.00 | 0.00 | 69 | 1018.0 |
| 20260507225706 | 67 | 163 | 0.0 | 2.0 | 0.00 | 0.00 | 0.00 | 69 | 1017.6 |
| 20260507225203 | 67 | 271 | 0.0 | 1.0 | 0.00 | 0.00 | 0.00 | 70 | 1018.2 |
| 20260507224658 | 67 | 13 | 0.0 | 0.0 | 0.00 | 0.00 | 0.00 | 70 | 1018.0 |
| 20260507224155 | 67 | 317 | 2.0 | 3.0 | 0.00 | 0.00 | 0.00 | 69 | 1017.9 |
| 20260507223651 | 67 | 203 | 2.0 | 3.0 | 0.00 | 0.00 | 0.00 | 70 | 1017.5 |
| 20260507223148 | 67 | 199 | 1.0 | 2.0 | 0.00 | 0.00 | 0.00 | 70 | 1017.9 |
| 20260507222645 | 67 | 237 | 0.0 | 0.0 | 0.00 | 0.00 | 0.00 | 70 | 1018.1 |
| 20260507222141 | 67 | 229 | 1.0 | 1.0 | 0.00 | 0.00 | 0.00 | 69 | 1018.1 |
| 20260507221638 | 67 | 182 | 2.0 | 3.0 | 0.00 | 0.00 | 0.00 | 70 | 1017.6 |
| 20260507221134 | 67 | 172 | 2.0 | 2.0 | 0.00 | 0.00 | 0.00 | 70 | 1018.4 |
| 20260507220632 | 66 | 201 | 2.0 | 2.0 | 0.00 | 0.00 | 0.00 | 70 | 1018.4 |
| 20260507220130 | 66 | 315 | 1.0 | 2.0 | 0.00 | 0.00 | 0.00 | 74 | 1018.5 |
| 20260507215625 | 66 | 29 | 1.0 | 1.0 | 0.00 | 0.00 | 0.00 | 74 | 1018.5 |
| 20260507215123 | 66 | 266 | 2.0 | 7.0 | 0.00 | 0.00 | 0.00 | 73 | 1019.4 |
| 20260507214620 | 66 | 172 | 1.0 | 2.0 | 0.00 | 0.00 | 0.00 | 75 | 1017.5 |
| 20260507214116 | 66 | 205 | 0.0 | 1.0 | 0.00 | 0.00 | 0.00 | 73 | 1018.6 |
| 20260507213612 | 66 | 218 | 1.0 | 3.0 | 0.00 | 0.00 | 0.00 | 71 | 1019.1 |
| 20260507213110 | 67 | 256 | 2.0 | 2.0 | 0.00 | 0.00 | 0.00 | 70 | 1019.1 |
| 20260507212606 | 67 | 181 | 2.0 | 3.0 | 0.00 | 0.00 | 0.00 | 67 | 1018.7 |
| 20260507212102 | 67 | 223 | 1.0 | 2.0 | 0.00 | 0.00 | 0.00 | 66 | 1018.9 |
| 20260507211559 | 67 | 261 | 0.0 | 3.0 | 0.00 | 0.00 | 0.00 | 65 | 1018.6 |
| 20260507211055 | 67 | 79 | 3.0 | 4.0 | 0.00 | 0.00 | 0.00 | 64 | 1017.5 |
| 20260507210553 | 68 | 2 | 5.0 | 6.0 | 0.00 | 0.00 | 0.00 | 64 | 1017.9 |
| 20260507210049 | 68 | 45 | 3.0 | 7.0 | 0.00 | 0.00 | 0.00 | 63 | 1017.6 |
| 20260507205546 | 68 | 357 | 2.0 | 3.0 | 0.00 | 0.00 | 0.00 | 63 | 1018.5 |
| 20260507205042 | 68 | 312 | 0.0 | 3.0 | 0.00 | 0.00 | 0.00 | 61 | 1019.5 |
| 20260507204539 | 68 | 124 | 2.0 | 4.0 | 0.00 | 0.00 | 0.00 | 61 | 1018.8 |
| 20260507204036 | 68 | 23 | 2.0 | 6.0 | 0.00 | 0.00 | 0.00 | 61 | 1018.7 |
| 20260507203534 | 68 | 111 | 1.0 | 7.0 | 0.00 | 0.00 | 0.00 | 62 | 1018.9 |
| 20260507203031 | 68 | 22 | 1.0 | 4.0 | 0.00 | 0.00 | 0.00 | 61 | 1018.8 |
| 20260507202527 | 68 | 359 | 5.0 | 7.0 | 0.00 | 0.00 | 0.00 | 61 | 1019.0 |
| 20260507202023 | 69 | 332 | 7.0 | 9.0 | 0.00 | 0.00 | 0.00 | 60 | 1019.3 |
| 20260507201519 | 69 | 343 | 2.0 | 7.0 | 0.00 | 0.00 | 0.00 | 60 | 1019.3 |
| 20260507201015 | 68 | 47 | 3.0 | 3.0 | 0.00 | 0.00 | 0.00 | 61 | 1019.3 |
| 20260507200511 | 68 | 80 | 2.0 | 3.0 | 0.00 | 0.00 | 0.00 | 61 | 1019.5 |
| 20260507200007 | 69 | 11 | 6.0 | 8.0 | 0.00 | 0.00 | 0.00 | 61 | 1019.6 |
| 20260507195505 | 69 | 26 | 1.0 | 4.0 | 0.00 | 0.00 | 0.00 | 61 | 1019.6 |
| 20260507195002 | 69 | 340 | 2.0 | 3.0 | 0.00 | 0.00 | 0.00 | 61 | 1019.3 |
| 20260507194458 | 68 | 92 | 2.0 | 3.0 | 0.00 | 0.00 | 0.00 | 62 | 1019.2 |
| 20260507193954 | 67 | 196 | 0.0 | 2.0 | 0.00 | 0.00 | 0.00 | 62 | 1019.3 |
| 20260507193452 | 68 | 356 | 2.0 | 6.0 | 0.00 | 0.00 | 0.00 | 61 | 1019.6 |
| 20260507192948 | 68 | 67 | 2.0 | 4.0 | 0.00 | 0.00 | 0.00 | 62 | 1019.7 |
| 20260507192444 | 67 | 296 | 0.0 | 3.0 | 0.00 | 0.00 | 0.00 | 62 | 1019.7 |
| 20260507191942 | 67 | 68 | 1.0 | 3.0 | 0.00 | 0.00 | 0.00 | 63 | 1019.7 |
| 20260507191437 | 67 | 90 | 4.0 | 4.0 | 0.00 | 0.00 | 0.00 | 63 | 1019.9 |
| 20260507190934 | 67 | 359 | 1.0 | 3.0 | 0.00 | 0.00 | 0.00 | 61 | 1020.0 |
| 20260507190432 | 67 | 62 | 3.0 | 4.0 | 0.00 | 0.00 | 0.00 | 61 | 1019.9 |
| 20260507185931 | 67 | 17 | 2.0 | 2.0 | 0.00 | 0.00 | 0.00 | 63 | 1020.2 |
| 20260507185427 | 67 | 19 | 4.0 | 6.0 | 0.00 | 0.00 | 0.00 | 62 | 1020.0 |
| 20260507184924 | 67 | 60 | 5.0 | 6.0 | 0.00 | 0.00 | 0.00 | 61 | 1020.3 |
| 20260507184422 | 67 | 21 | 4.0 | 9.0 | 0.00 | 0.00 | 0.00 | 63 | 1020.0 |
| 20260507183920 | 66 | 342 | 2.0 | 7.0 | 0.00 | 0.00 | 0.00 | 64 | 1019.9 |
| 20260507183416 | 66 | 144 | 4.0 | 7.0 | 0.00 | 0.00 | 0.00 | 63 | 1020.0 |
| 20260507182914 | 66 | 27 | 5.0 | 6.0 | 0.00 | 0.00 | 0.00 | 62 | 1020.1 |
| 20260507182409 | 66 | 0 | 9.0 | 11.0 | 0.00 | 0.00 | 0.00 | 63 | 1020.1 |
| 20260507181906 | 66 | 36 | 4.0 | 4.0 | 0.00 | 0.00 | 0.00 | 63 | 1019.8 |
| 20260507181402 | 65 | 348 | 4.0 | 7.0 | 0.00 | 0.00 | 0.00 | 64 | 1019.7 |
| 20260507180859 | 65 | 54 | 3.0 | 4.0 | 0.00 | 0.00 | 0.00 | 65 | 1019.9 |
| 20260507180355 | 65 | 344 | 6.0 | 9.0 | 0.00 | 0.00 | 0.00 | 64 | 1020.1 |
| 20260507175851 | 65 | 12 | 2.0 | 7.0 | 0.00 | 0.00 | 0.00 | 64 | 1020.2 |
| 20260507175348 | 65 | 25 | 3.0 | 8.0 | 0.00 | 0.00 | 0.00 | 63 | 1020.8 |
| 20260507174846 | 66 | 57 | 3.0 | 6.0 | 0.00 | 0.00 | 0.00 | 62 | 1021.0 |
| 20260507174343 | 66 | 10 | 3.0 | 7.0 | 0.00 | 0.00 | 0.00 | 62 | 1021.0 |
| 20260507173841 | 65 | 15 | 2.0 | 4.0 | 0.00 | 0.00 | 0.00 | 63 | 1021.2 |
| 20260507173337 | 64 | 20 | 2.0 | 4.0 | 0.00 | 0.00 | 0.00 | 64 | 1021.3 |
| 20260507172833 | 64 | 245 | 0.0 | 4.0 | 0.00 | 0.00 | 0.00 | 64 | 1021.6 |
| 20260507172331 | 65 | 338 | 4.0 | 7.0 | 0.00 | 0.00 | 0.00 | 63 | 1020.9 |
| 20260507171826 | 65 | 350 | 2.0 | 6.0 | 0.00 | 0.00 | 0.00 | 64 | 1020.9 |
| 20260507171323 | 64 | 61 | 3.0 | 4.0 | 0.00 | 0.00 | 0.00 | 64 | 1020.9 |
| 20260507170820 | 64 | 29 | 1.0 | 6.0 | 0.00 | 0.00 | 0.00 | 65 | 1021.0 |
| 20260507170317 | 64 | 354 | 4.0 | 7.0 | 0.00 | 0.00 | 0.00 | 65 | 1021.3 |
| 20260507165813 | 64 | 350 | 6.0 | 7.0 | 0.00 | 0.00 | 0.00 | 64 | 1021.5 |
| 20260507165309 | 64 | 359 | 1.0 | 7.0 | 0.00 | 0.00 | 0.00 | 64 | 1021.0 |
| 20260507164805 | 63 | 94 | 3.0 | 8.0 | 0.00 | 0.00 | 0.00 | 64 | 1020.9 |
| 20260507164302 | 63 | 20 | 7.0 | 10.0 | 0.00 | 0.00 | 0.00 | 64 | 1020.9 |
| 20260507163759 | 63 | 64 | 4.0 | 8.0 | 0.00 | 0.00 | 0.00 | 63 | 1021.0 |
| 20260507163257 | 63 | 40 | 5.0 | 11.0 | 0.00 | 0.00 | 0.00 | 63 | 1021.1 |
| 20260507162753 | 64 | 15 | 8.0 | 10.0 | 0.00 | 0.00 | 0.00 | 63 | 1020.9 |
| 20260507162249 | 64 | 50 | 5.0 | 7.0 | 0.00 | 0.00 | 0.00 | 63 | 1021.0 |
| 20260507161746 | 64 | 20 | 4.0 | 8.0 | 0.00 | 0.00 | 0.00 | 63 | 1021.0 |
| 20260507161243 | 64 | 33 | 2.0 | 6.0 | 0.00 | 0.00 | 0.00 | 63 | 1021.2 |
| 20260507160738 | 63 | 338 | 5.0 | 9.0 | 0.00 | 0.00 | 0.00 | 63 | 1021.1 |
| 20260507160235 | 64 | 9 | 7.0 | 9.0 | 0.00 | 0.00 | 0.00 | 62 | 1021.0 |
| 20260507155731 | 64 | 13 | 5.0 | 8.0 | 0.00 | 0.00 | 0.00 | 62 | 1020.6 |
| 20260507155227 | 62 | 29 | 5.0 | 15.0 | 0.00 | 0.00 | 0.00 | 64 | 1020.8 |
| 20260507154724 | 62 | 34 | 6.0 | 9.0 | 0.00 | 0.00 | 0.00 | 64 | 1021.1 |
| 20260507154222 | 63 | 352 | 7.0 | 10.0 | 0.00 | 0.00 | 0.00 | 65 | 1021.2 |
| 20260507153718 | 62 | 22 | 4.0 | 10.0 | 0.00 | 0.00 | 0.00 | 65 | 1021.3 |
| 20260507153214 | 63 | 346 | 4.0 | 6.0 | 0.00 | 0.00 | 0.00 | 65 | 1021.3 |
| 20260507152711 | 63 | 350 | 4.0 | 6.0 | 0.00 | 0.00 | 0.00 | 65 | 1021.6 |
| 20260507152207 | 63 | 4 | 2.0 | 8.0 | 0.00 | 0.00 | 0.00 | 65 | 1021.6 |
| 20260507151703 | 62 | 39 | 3.0 | 8.0 | 0.00 | 0.00 | 0.00 | 66 | 1021.5 |
| 20260507151200 | 61 | 119 | 4.0 | 7.0 | 0.00 | 0.00 | 0.00 | 69 | 1021.7 |
| 20260507150657 | 62 | 24 | 3.0 | 3.0 | 0.00 | 0.00 | 0.00 | 69 | 1021.4 |
| 20260507150154 | 61 | 34 | 4.0 | 6.0 | 0.00 | 0.00 | 0.00 | 69 | 1021.4 |
| 20260507145649 | 62 | 39 | 6.0 | 7.0 | 0.00 | 0.00 | 0.00 | 69 | 1021.4 |
| 20260507145147 | 60 | 44 | 1.0 | 4.0 | 0.00 | 0.00 | 0.00 | 72 | 1021.3 |
| 20260507144643 | 60 | 349 | 6.0 | 9.0 | 0.00 | 0.00 | 0.00 | 71 | 1021.0 |
| 20260507144141 | 60 | 7 | 6.0 | 10.0 | 0.00 | 0.00 | 0.00 | 73 | 1020.8 |
| 20260507143637 | 59 | 34 | 4.0 | 8.0 | 0.00 | 0.00 | 0.00 | 75 | 1020.8 |
| 20260507143135 | 59 | 5 | 8.0 | 10.0 | 0.00 | 0.00 | 0.00 | 76 | 1020.8 |
| 20260507142630 | 59 | 12 | 5.0 | 11.0 | 0.00 | 0.00 | 0.00 | 76 | 1021.3 |
| 20260507142127 | 58 | 348 | 4.0 | 6.0 | 0.00 | 0.00 | 0.00 | 78 | 1021.5 |
| 20260507141623 | 58 | 43 | 4.0 | 7.0 | 0.00 | 0.00 | 0.00 | 78 | 1021.5 |
| 20260507141120 | 58 | 353 | 6.0 | 7.0 | 0.00 | 0.00 | 0.00 | 77 | 1022.0 |
| 20260507140617 | 58 | 345 | 5.0 | 8.0 | 0.00 | 0.00 | 0.00 | 78 | 1022.0 |
| 20260507140114 | 57 | 10 | 3.0 | 8.0 | 0.00 | 0.00 | 0.00 | 79 | 1021.7 |
| 20260507135611 | 57 | 355 | 7.0 | 10.0 | 0.00 | 0.00 | 0.00 | 79 | 1021.8 |
| 20260507135109 | 57 | 24 | 4.0 | 11.0 | 0.00 | 0.00 | 0.00 | 79 | 1021.6 |
| 20260507134605 | 57 | 0 | 7.0 | 13.0 | 0.00 | 0.00 | 0.00 | 79 | 1021.8 |
| 20260507134101 | 57 | 354 | 9.0 | 11.0 | 0.00 | 0.00 | 0.00 | 80 | 1021.9 |
| 20260507133557 | 57 | 12 | 7.0 | 9.0 | 0.00 | 0.00 | 0.00 | 80 | 1021.8 |
| 20260507133055 | 57 | 0 | 11.0 | 13.0 | 0.00 | 0.00 | 0.00 | 80 | 1021.8 |
| 20260507132551 | 57 | 342 | 6.0 | 13.0 | 0.00 | 0.00 | 0.00 | 80 | 1022.1 |
| 20260507132048 | 57 | 0 | 8.0 | 11.0 | 0.00 | 0.00 | 0.00 | 80 | 1022.2 |
| 20260507131545 | 57 | 359 | 7.0 | 14.0 | 0.00 | 0.00 | 0.00 | 81 | 1021.9 |
| 20260507131042 | 57 | 353 | 8.0 | 10.0 | 0.00 | 0.00 | 0.00 | 81 | 1021.9 |
| 20260507130539 | 57 | 12 | 11.0 | 14.0 | 0.00 | 0.00 | 0.00 | 81 | 1021.6 |
| 20260507130037 | 57 | 38 | 6.0 | 10.0 | 0.00 | 0.00 | 0.00 | 82 | 1021.6 |
| 20260507125535 | 57 | 11 | 4.0 | 9.0 | 0.00 | 0.00 | 0.00 | 83 | 1021.2 |
| 20260507125032 | 57 | 17 | 6.0 | 14.0 | 0.00 | 0.00 | 0.00 | 83 | 1021.1 |
| 20260507124529 | 57 | 357 | 11.0 | 14.0 | 0.00 | 0.00 | 0.00 | 84 | 1021.3 |
| 20260507124026 | 57 | 30 | 5.0 | 8.0 | 0.00 | 0.00 | 0.00 | 84 | 1021.6 |
| 20260507123524 | 57 | 52 | 2.0 | 9.0 | 0.00 | 0.00 | 0.00 | 84 | 1021.8 |
| 20260507123021 | 56 | 40 | 3.0 | 8.0 | 0.00 | 0.00 | 0.00 | 85 | 1021.7 |
| 20260507122516 | 56 | 9 | 4.0 | 9.0 | 0.00 | 0.00 | 0.00 | 85 | 1021.7 |
| 20260507122012 | 56 | 353 | 3.0 | 7.0 | 0.00 | 0.00 | 0.00 | 85 | 1021.5 |
| 20260507121508 | 56 | 15 | 4.0 | 8.0 | 0.00 | 0.00 | 0.00 | 85 | 1021.3 |
| 20260507121004 | 56 | 334 | 6.0 | 9.0 | 0.00 | 0.00 | 0.00 | 85 | 1021.4 |
| 20260507120500 | 56 | 353 | 6.0 | 8.0 | 0.00 | 0.00 | 0.00 | 85 | 1021.1 |
| 20260507115957 | 57 | 39 | 5.0 | 8.0 | 0.00 | 0.00 | 0.00 | 85 | 1021.4 |
| 20260507115454 | 57 | 352 | 7.0 | 10.0 | 0.00 | 0.00 | 0.00 | 84 | 1021.0 |
| 20260507114949 | 57 | 7 | 8.0 | 9.0 | 0.00 | 0.00 | 0.00 | 84 | 1021.3 |
| 20260507114445 | 57 | 8 | 8.0 | 13.0 | 0.00 | 0.00 | 0.00 | 84 | 1020.9 |
| 20260507113943 | 57 | 352 | 11.0 | 13.0 | 0.00 | 0.00 | 0.00 | 84 | 1020.9 |
| 20260507113440 | 57 | 13 | 6.0 | 13.0 | 0.00 | 0.00 | 0.00 | 84 | 1020.9 |
| 20260507112937 | 57 | 358 | 9.0 | 13.0 | 0.00 | 0.00 | 0.00 | 84 | 1020.7 |
| 20260507112435 | 58 | 1 | 8.0 | 9.0 | 0.00 | 0.00 | 0.00 | 85 | 1020.6 |
| 20260507111931 | 58 | 14 | 6.0 | 10.0 | 0.00 | 0.00 | 0.00 | 85 | 1020.6 |
| 20260507111429 | 58 | 39 | 4.0 | 11.0 | 0.00 | 0.00 | 0.00 | 85 | 1020.4 |
| 20260507110925 | 58 | 334 | 6.0 | 8.0 | 0.00 | 0.00 | 0.00 | 85 | 1020.4 |
| 20260507110421 | 58 | 356 | 8.0 | 11.0 | 0.00 | 0.00 | 0.00 | 85 | 1020.7 |
| 20260507105918 | 58 | 6 | 3.0 | 7.0 | 0.00 | 0.00 | 0.00 | 84 | 1020.6 |
| 20260507105415 | 58 | 322 | 4.0 | 7.0 | 0.00 | 0.00 | 0.00 | 84 | 1020.8 |
| 20260507104912 | 58 | 340 | 6.0 | 11.0 | 0.00 | 0.00 | 0.00 | 84 | 1020.7 |
| 20260507104408 | 58 | 339 | 5.0 | 7.0 | 0.00 | 0.00 | 0.00 | 85 | 1020.6 |
| 20260507103904 | 58 | 15 | 6.0 | 7.0 | 0.00 | 0.00 | 0.00 | 84 | 1021.0 |
| 20260507103401 | 58 | 6 | 4.0 | 8.0 | 0.00 | 0.00 | 0.00 | 84 | 1020.5 |
| 20260507102857 | 58 | 351 | 3.0 | 10.0 | 0.00 | 0.00 | 0.00 | 84 | 1020.4 |
| 20260507102354 | 58 | 12 | 6.0 | 8.0 | 0.00 | 0.00 | 0.00 | 84 | 1020.3 |
| 20260507101851 | 58 | 42 | 5.0 | 9.0 | 0.00 | 0.00 | 0.00 | 84 | 1020.4 |
| 20260507101350 | 58 | 353 | 4.0 | 6.0 | 0.00 | 0.00 | 0.00 | 84 | 1020.7 |
| 20260507100848 | 58 | 324 | 4.0 | 6.0 | 0.00 | 0.00 | 0.00 | 84 | 1020.5 |
| 20260507100345 | 58 | 342 | 3.0 | 6.0 | 0.00 | 0.00 | 0.00 | 84 | 1020.3 |
| 20260507095843 | 58 | 356 | 6.0 | 8.0 | 0.00 | 0.00 | 0.00 | 84 | 1019.7 |
| 20260507095339 | 58 | 26 | 4.0 | 8.0 | 0.00 | 0.00 | 0.00 | 84 | 1020.0 |
| 20260507094837 | 58 | 342 | 3.0 | 6.0 | 0.00 | 0.00 | 0.00 | 85 | 1019.9 |
| 20260507094333 | 58 | 353 | 5.0 | 6.0 | 0.00 | 0.00 | 0.00 | 85 | 1019.9 |
| 20260507093830 | 58 | 0 | 3.0 | 7.0 | 0.00 | 0.00 | 0.00 | 85 | 1019.8 |
| 20260507093329 | 58 | 12 | 3.0 | 6.0 | 0.00 | 0.00 | 0.00 | 86 | 1019.7 |
| 20260507092826 | 58 | 0 | 2.0 | 7.0 | 0.00 | 0.00 | 0.00 | 86 | 1019.6 |
| 20260507092323 | 58 | 307 | 2.0 | 2.0 | 0.00 | 0.00 | 0.00 | 86 | 1019.3 |
| 20260507091819 | 58 | 41 | 3.0 | 4.0 | 0.00 | 0.00 | 0.00 | 86 | 1019.1 |
| 20260507091316 | 58 | 26 | 7.0 | 9.0 | 0.00 | 0.00 | 0.00 | 86 | 1019.1 |
| 20260507090811 | 58 | 15 | 4.0 | 6.0 | 0.00 | 0.00 | 0.00 | 87 | 1019.2 |
| 20260507090308 | 58 | 30 | 4.0 | 8.0 | 0.00 | 0.00 | 0.00 | 87 | 1018.8 |
| 20260507085805 | 58 | 316 | 1.0 | 4.0 | 0.00 | 0.00 | 0.00 | 87 | 1019.0 |
| 20260507085301 | 58 | 28 | 5.0 | 9.0 | 0.00 | 0.00 | 0.00 | 88 | 1018.7 |
| 20260507084759 | 58 | 53 | 6.0 | 11.0 | 0.00 | 0.00 | 0.00 | 88 | 1018.8 |
| 20260507084255 | 58 | 42 | 3.0 | 7.0 | 0.00 | 0.00 | 0.00 | 89 | 1018.6 |
| 20260507083753 | 58 | 31 | 6.0 | 10.0 | 0.00 | 0.00 | 0.00 | 90 | 1018.7 |
| 20260507083249 | 58 | 30 | 2.0 | 6.0 | 0.00 | 0.00 | 0.00 | 90 | 1018.6 |
| 20260507082745 | 58 | 20 | 4.0 | 4.0 | 0.00 | 0.00 | 0.00 | 91 | 1018.6 |
| 20260507082241 | 58 | 38 | 3.0 | 4.0 | 0.00 | 0.00 | 0.00 | 91 | 1018.4 |
| 20260507081738 | 58 | 66 | 4.0 | 7.0 | 0.00 | 0.00 | 0.00 | 91 | 1018.2 |
| 20260507081234 | 58 | 358 | 2.0 | 3.0 | 0.00 | 0.00 | 0.00 | 91 | 1018.1 |
| 20260507080731 | 58 | 15 | 1.0 | 3.0 | 0.00 | 0.00 | 0.00 | 90 | 1017.9 |
| 20260507080227 | 58 | 26 | 2.0 | 4.0 | 0.00 | 0.00 | 0.00 | 90 | 1018.0 |
| 20260507075722 | 58 | 22 | 6.0 | 8.0 | 0.00 | 0.00 | 0.00 | 89 | 1018.0 |
| 20260507075219 | 59 | 345 | 3.0 | 6.0 | 0.00 | 0.00 | 0.00 | 89 | 1017.9 |
| 20260507074715 | 59 | 53 | 7.0 | 10.0 | 0.00 | 0.00 | 0.00 | 88 | 1017.9 |
| 20260507074214 | 59 | 353 | 3.0 | 11.0 | 0.00 | 0.00 | 0.00 | 88 | 1018.0 |
| 20260507073710 | 59 | 12 | 4.0 | 8.0 | 0.00 | 0.00 | 0.00 | 88 | 1018.1 |
| 20260507073206 | 59 | 62 | 2.0 | 8.0 | 0.00 | 0.00 | 0.00 | 87 | 1018.1 |
| 20260507072705 | 59 | 84 | 2.0 | 8.0 | 0.00 | 0.00 | 0.00 | 87 | 1018.0 |
| 20260507072201 | 59 | 316 | 5.0 | 8.0 | 0.00 | 0.00 | 0.00 | 87 | 1017.8 |
| 20260507071659 | 59 | 16 | 4.0 | 8.0 | 0.00 | 0.00 | 0.00 | 87 | 1017.9 |
| 20260507071155 | 59 | 56 | 4.0 | 6.0 | 0.00 | 0.00 | 0.00 | 86 | 1017.9 |
| 20260507070652 | 59 | 31 | 4.0 | 8.0 | 0.00 | 0.00 | 0.00 | 86 | 1017.9 |
| 20260507070149 | 59 | 355 | 4.0 | 6.0 | 0.00 | 0.00 | 0.00 | 86 | 1017.9 |
| 20260507065645 | 59 | 347 | 4.0 | 9.0 | 0.00 | 0.00 | 0.00 | 86 | 1018.1 |
| 20260507065142 | 59 | 35 | 3.0 | 9.0 | 0.00 | 0.00 | 0.00 | 86 | 1018.1 |
| 20260507064640 | 58 | 350 | 2.0 | 6.0 | 0.00 | 0.00 | 0.00 | 86 | 1018.1 |
| 20260507064138 | 58 | 60 | 1.0 | 3.0 | 0.00 | 0.00 | 0.00 | 86 | 1018.1 |
| 20260507063636 | 58 | 17 | 2.0 | 4.0 | 0.00 | 0.00 | 0.00 | 86 | 1018.1 |
| 20260507063132 | 58 | 23 | 2.0 | 4.0 | 0.00 | 0.00 | 0.00 | 86 | 1018.1 |
| 20260507062629 | 58 | 32 | 2.0 | 3.0 | 0.00 | 0.00 | 0.00 | 86 | 1018.4 |
| 20260507062127 | 58 | 10 | 4.0 | 6.0 | 0.00 | 0.00 | 0.00 | 85 | 1018.2 |
| 20260507061624 | 58 | 5 | 4.0 | 4.0 | 0.00 | 0.00 | 0.00 | 85 | 1018.1 |
| 20260507061122 | 58 | 10 | 2.0 | 4.0 | 0.00 | 0.00 | 0.00 | 85 | 1018.2 |
| 20260507060620 | 59 | 36 | 4.0 | 7.0 | 0.00 | 0.00 | 0.00 | 85 | 1018.1 |
| 20260507060116 | 58 | 15 | 3.0 | 7.0 | 0.00 | 0.00 | 0.00 | 85 | 1018.2 |
| 20260507055612 | 58 | 70 | 4.0 | 7.0 | 0.00 | 0.00 | 0.00 | 85 | 1018.0 |
| 20260507055108 | 59 | 19 | 3.0 | 4.0 | 0.00 | 0.00 | 0.00 | 85 | 1018.1 |
| 20260507054604 | 59 | 343 | 4.0 | 6.0 | 0.00 | 0.00 | 0.00 | 85 | 1018.1 |
| 20260507054101 | 59 | 51 | 3.0 | 4.0 | 0.00 | 0.00 | 0.00 | 85 | 1018.6 |
| 20260507053559 | 59 | 40 | 4.0 | 8.0 | 0.00 | 0.00 | 0.00 | 85 | 1018.5 |
| 20260507053058 | 59 | 32 | 4.0 | 8.0 | 0.00 | 0.00 | 0.00 | 85 | 1018.2 |
| 20260507052555 | 59 | 18 | 2.0 | 9.0 | 0.00 | 0.00 | 0.00 | 85 | 1018.1 |
| 20260507052051 | 59 | 22 | 4.0 | 6.0 | 0.00 | 0.00 | 0.00 | 85 | 1018.5 |
| 20260507051549 | 59 | 4 | 5.0 | 7.0 | 0.00 | 0.00 | 0.00 | 85 | 1018.4 |
| 20260507051046 | 59 | 20 | 5.0 | 15.0 | 0.00 | 0.00 | 0.00 | 85 | 1018.2 |
| 20260507050542 | 59 | 11 | 5.0 | 11.0 | 0.00 | 0.00 | 0.00 | 85 | 1018.8 |
| 20260507050039 | 59 | 352 | 1.0 | 7.0 | 0.00 | 0.00 | 0.00 | 85 | 1018.7 |
| 20260507045536 | 59 | 2 | 3.0 | 7.0 | 0.00 | 0.00 | 0.00 | 85 | 1018.6 |
| 20260507045033 | 59 | 49 | 5.0 | 9.0 | 0.00 | 0.00 | 0.00 | 84 | 1018.6 |
| 20260507044529 | 59 | 5 | 4.0 | 6.0 | 0.00 | 0.00 | 0.00 | 84 | 1018.2 |